1998-067HS

Last updated on Sun Feb 14 2016 09:35:14 GMT+0000 (Coordinated Universal Time)

1 41327U 98067HS 16045.10767397 .00276549 00000-0 33335-2 0 9995 2 41327 51.6470 316.6146 0006178 151.4851 208.6871 15.59298528 1610

Satellite not in orbit